Wind_Speed
40 41 41 41 42 42 42 42 43 44 44 44 45 46 46 47 47 48 47 47 48 47 47 48 48 49 50 50 50 51 51 51 51 49 50 49 49 50 50 50 50 50 50
40 41 42 43 43 43 43 43 44 44 45 45 46 46 47 48 48 49 49 48 48 47 48 48 48 49 49 50 50 50 51 51 51 50 50 51 51 50 51 51 52 52 52
40 41 42 44 43 43 44 44 45 45 46 46 46 47 47 48 48 49 48 48 47 47 47 47 47 47 48 49 50 51 50 51 51 51 50 51 52 51 51 52 53 54 54
41 42 44 44 45 45 45 45 45 46 47 48 48 48 49 48 48 47 47 47 47 46 46 46 46 47 48 49 49 50 50 51 51 51 52 52 53 53 54 54 55 55 55
42 44 44 44 45 45 46 46 47 47 48 49 49 49 48 48 47 47 47 47 47 47 48 48 48 48 48 49 50 50 51 52 52 52 52 53 53 54 55 55 55 55 54
43 44 44 45 45 45 46 46 47 47 48 48 48 47 47 47 47 47 47 47 48 48 49 49 49 49 49 50 50 51 51 52 53 52 52 53 54 55 55 56 55 55 54
43 44 44 45 45 45 46 46 47 47 47 47 47 47 47 48 47 47 47 47 48 48 49 49 50 50 50 50 51 51 51 52 53 53 53 54 55 55 56 56 56 55 54
45 45 45 45 46 46 46 46 46 46 46 46 46 46 46 47 47 47 47 47 48 48 49 49 49 50 50 50 50 51 51 52 52 53 53 54 54 55 55 56 56 56 55
45 45 45 45 46 47 47 47 46 46 45 45 45 45 45 45 47 47 46 47 47 47 48 49 49 50 50 51 51 51 51 51 52 53 53 53 54 54 55 56 56 56 55
45 45 45 46 46 47 47 47 46 46 46 45 45 45 45 45 45 45 46 46 47 47 48 49 49 50 50 50 51 51 51 51 51 52 52 52 53 54 55 55 56 55 55
45 45 46 46 47 46 46 46 46 46 46 45 45 45 45 45 45 45 45 46 47 48 49 49 49 49 50 50 50 50 51 51 51 51 51 51 52 53 54 55 55 55 54
44 44 45 45 45 45 45 45 45 45 45 45 45 45 45 46 46 46 47 47 48 48 48 48 48 48 49 49 49 50 50 52 51 51 51 51 51 52 53 54 54 54 54
44 44 44 44 44 44 44 44 45 45 45 45 45 45 45 45 45 46 46 47 48 48 48 48 48 48 48 49 49 49 49 50 50 50 49 50 50 51 52 53 53 53 52
43 43 43 43 44 44 43 44 44 44 45 45 45 45 45 45 45 45 45 46 47 47 48 48 48 48 48 48 48 49 49 50 50 50 50 50 50 50 51 51 51 51 50
43 44 43 43 43 44 44 43 43 44 44 44 45 45 45 45 45 45 46 46 46 46 47 48 48 48 48 48 49 49 49 50 50 50 50 50 50 50 50 50 50 49 49
42 43 43 43 43 43 43 43 43 44 44 45 45 45 45 45 46 46 47 47 47 47 46 47 47 47 47 47 47 47 47 47 48 48 48 48 48 48 47 47 47 47 47
43 43 43 42 42 41 41 42 43 44 44 44 45 45 45 45 45 46 46 46 46 46 45 44 45 45 45 44 44 44 44 45 45 45 45 46 46 46 46 46 46 47 46
43 42 43 42 41 40 41 41 42 42 43 43 44 44 45 45 45 45 45 45 45 45 45 44 44 43 43 42 42 42 43 43 44 44 44 44 44 44 44 45 46 46 46
41 41 41 41 41 41 41 41 41 42 42 42 43 44 44 45 45 45 45 44 44 44 44 43 43 43 42 41 40 40 41 42 42 42 42 42 43 43 43 44 44 44 44
38 38 39 40 40 40 40 40 41 41 42 42 42 42 42 43 43 43 43 43 43 43 42 42 41 41 40 40 40 40 40 40 40 39 39 40 40 41 41 41 41 41 42
38 38 39 39 39 39 40 40 40 41 41 41 41 41 41 41 41 41 41 41 41 41 41 40 40 40 39 39 39 39 39 38 38 38 38 38 38 38 38 39 39 39 39
38 38 39 39 39 39 39 39 40 40 40 40 40 40 40 40 39 39 39 39 39 39 39 38 38 38 38 37 37 37 37 36 36 36 36 36 36 36 36 37 37 37 38
36 36 37 37 37 37 37 37 37 38 38 38 38 38 38 38 38 38 38 38 37 37 37 36 36 35 35 35 35 34 34 34 35 35 35 34 34 35 35 35 35 35 35
34 35 35 35 35 35 35 35 35 35 36 36 36 37 37 37 36 36 36 35 35 35 35 34 33 33 33 34 34 33 33 33 33 33 34 34 34 34 34 34 34 34 34
32 32 32 32 32 33 33 34 34 34 34 34 34 35 35 34 34 34 33 33 33 33 33 32 32 32 32 32 32 32 32 32 32 33 33 33 33 33 33 33 33 33 33
29 29 29 29 30 30 31 32 32 33 33 33 33 32 32 32 32 32 32 31 32 32 32 32 32 31 31 30 30 31 31 31 31 32 32 33 32 32 32 32 32 33 33
Wind_Direction
267 267 269 269 270 270 268 268 267 266 266 266 266 267 268 269 268 268 268 269 269 269 268 267 267 266 266 267 266 266 266 265 264 263 262 262 263 263 263 263 263 263 264
267 268 269 269 270 268 267 267 267 267 267 267 267 268 268 269 269 268 268 269 269 268 268 267 267 267 267 268 267 266 265 264 264 263 263 262 263 264 264 264 264 263 264
267 267 268 268 268 268 267 266 266 267 267 267 268 268 268 268 269 269 269 269 269 269 269 268 268 267 267 267 266 265 264 264 264 264 263 263 263 263 264 264 264 265 266
267 267 267 268 268 268 268 267 267 267 267 267 268 269 269 269 269 269 268 268 268 269 269 268 268 268 268 268 267 266 264 263 263 263 263 263 263 264 265 265 265 266 266
268 268 268 268 268 268 269 269 269 269 269 268 268 268 268 267 267 267 268 267 267 268 268 268 268 268 269 269 268 267 265 263 263 263 263 263 263 264 265 265 265 265 267
270 270 270 270 269 270 270 270 270 269 269 269 268 268 267 267 267 268 267 266 267 267 268 268 268 269 269 269 268 267 265 264 263 263 264 263 263 264 264 265 265 266 266
271 270 270 271 270 271 272 272 272 272 271 269 268 267 266 267 267 268 267 266 266 267 268 269 269 269 270 269 268 266 266 265 264 264 264 263 263 263 263 264 266 267 267
271 270 270 270 271 271 272 272 272 271 271 269 268 268 267 267 267 267 267 266 266 267 269 270 271 271 270 270 268 267 266 266 265 265 264 264 263 262 263 263 265 266 268
270 270 270 270 270 270 270 270 270 270 269 269 268 268 268 268 267 267 266 266 267 267 269 270 271 271 271 271 270 268 267 266 266 265 265 265 263 263 263 264 265 266 267
270 270 270 270 271 270 270 269 269 268 269 269 269 269 269 268 268 267 266 266 267 268 269 270 271 271 271 271 271 270 268 267 267 266 266 267 265 264 264 265 266 267 268
271 271 271 271 271 271 270 270 268 268 268 268 268 268 269 269 268 268 268 267 268 269 270 270 270 271 271 271 271 271 270 269 268 267 268 268 268 266 266 266 267 268 268
273 273 272 272 272 271 270 269 268 267 267 268 268 268 269 269 269 270 269 270 270 270 270 271 271 271 271 271 271 271 270 270 268 268 268 268 268 267 266 266 266 267 268
274 274 274 273 271 270 270 269 269 268 269 269 269 270 270 270 271 271 271 271 272 272 271 270 271 271 271 271 270 271 271 270 269 269 269 268 268 268 268 266 266 266 266
273 273 273 272 271 270 269 269 269 269 270 270 270 271 271 271 271 272 272 272 273 274 273 271 271 271 270 270 270 271 271 270 270 269 269 269 269 269 269 267 266 266 266
273 272 272 271 270 270 270 269 270 270 271 271 271 271 271 271 272 272 273 273 273 274 274 273 272 272 272 271 271 271 271 270 270 270 269 269 269 269 268 267 266 265 266
273 273 272 272 272 271 271 270 271 271 271 272 272 272 273 273 273 273 273 273 273 274 275 274 274 273 273 273 273 272 271 270 270 269 269 269 268 268 268 267 266 266 266
274 274 273 272 272 272 272 272 272 272 273 273 274 274 275 275 275 274 274 273 273 274 274 275 275 274 274 274 273 273 272 271 270 270 269 269 268 268 268 267 267 267 266
273 273 272 271 272 273 274 273 273 273 273 274 275 275 276 276 275 275 274 273 273 273 273 274 275 275 274 274 273 273 273 272 272 271 270 269 268 268 268 268 267 267 266
274 273 272 272 273 275 275 275 275 275 275 276 275 276 276 276 276 275 274 273 273 273 273 274 275 275 274 274 273 273 274 274 274 272 271 270 269 269 268 268 267 266 265
274 273 274 273 275 276 277 277 277 277 277 277 277 277 277 277 276 275 274 273 273 273 273 273 274 274 274 273 274 274 274 274 273 272 271 271 271 271 270 269 267 266 266
275 275 275 275 276 277 277 277 277 277 277 277 277 277 277 277 277 276 275 274 273 272 272 272 272 274 273 273 273 273 273 272 271 270 270 271 272 271 271 270 268 267 266
275 275 275 276 276 277 277 278 278 278 278 277 277 277 278 278 277 276 275 273 272 271 271 270 271 273 273 273 273 273 272 271 270 269 270 270 271 271 270 270 269 267 266
276 276 276 277 277 277 278 279 279 278 278 278 278 278 279 278 278 276 275 273 271 270 270 270 271 271 271 272 272 272 272 270 269 268 269 269 270 269 269 269 267 266 266
277 276 277 277 277 278 278 279 280 281 281 280 279 279 279 278 277 276 274 272 270 270 269 269 270 270 271 271 271 271 271 270 268 268 269 269 269 269 268 267 266 266 267
278 278 277 277 277 278 278 279 280 281 282 281 280 279 279 278 277 275 272 271 269 269 268 268 269 269 271 272 272 272 271 271 270 269 269 268 268 267 266 266 266 266 267
278 278 277 277 278 279 280 281 281 282 283 282 281 281 280 278 276 274 271 270 270 269 268 268 268 269 270 271 272 273 272 272 271 270 269 268 267 266 265 266 266 266 266
Height
5610 5610 5609 5609 5608 5608 5607 5607 5607 5607 5607 5606 5606 5606 5606 5605 5605 5605 5605 5604 5604 5603 5602 5602 5602 5601 5601 5601 5601 5601 5602 5602 5605 5608 5609 5609 5610 5610 5611 5611 5612 5612 5613
5598 5598 5597 5597 5596 5595 5595 5594 5594 5594 5594 5593 5593 5593 5593 5592 5591 5591 5591 5590 5590 5589 5589 5588 5588 5587 5587 5587 5587 5587 5587 5588 5589 5592 5594 5594 5595 5595 5596 5597 5597 5598 5599
5586 5585 5585 5584 5583 5583 5582 5581 5581 5580 5580 5580 5580 5580 5579 5578 5578 5577 5577 5576 5576 5575 5574 5574 5574 5573 5573 5573 5573 5573 5573 5574 5575 5577 5579 5579 5580 5580 5581 5582 5582 5582 5583
5573 5573 5572 5571 5570 5570 5569 5568 5568 5567 5567 5566 5566 5565 5565 5564 5563 5563 5562 5562 5562 5561 5561 5560 5560 5560 5559 5559 5558 5558 5558 5559 5560 5561 5563 5564 5565 5565 5565 5565 5566 5567 5567
5560 5560 5559 5558 5557 5556 5555 5555 5554 5553 5553 5552 5552 5551 5551 5550 5550 5549 5549 5548 5548 5548 5547 5547 5546 5546 5545 5545 5544 5544 5544 5544 5545 5546 5547 5549 5549 5549 5549 5549 5550 5551 5552
5548 5547 5546 5545 5544 5543 5542 5541 5540 5539 5538 5538 5537 5537 5537 5536 5536 5535 5535 5535 5534 5534 5533 5532 5532 5531 5531 5530 5530 5529 5530 5530 5530 5531 5532 5533 5533 5533 5533 5533 5534 5535 5537
5535 5534 5533 5532 5531 5530 5529 5528 5526 5525 5524 5523 5523 5523 5523 5522 5522 5522 5521 5521 5520 5520 5519 5518 5518 5517 5516 5515 5515 5515 5515 5514 5515 5516 5516 5517 5517 5517 5518 5518 5518 5519 5521
5522 5521 5520 5519 5518 5517 5516 5514 5513 5512 5511 5510 5509 5509 5509 5509 5508 5508 5507 5507 5506 5506 5505 5504 5503 5502 5501 5501 5501 5500 5500 5499 5500 5500 5501 5501 5501 5501 5501 5502 5503 5503 5505
5508 5507 5506 5505 5504 5503 5502 5501 5499 5498 5497 5497 5496 5496 5495 5495 5494 5494 5493 5493 5493 5492 5491 5490 5489 5488 5487 5486 5486 5486 5486 5485 5484 5484 5484 5484 5484 5485 5485 5485 5486 5486 5488
5494 5493 5492 5491 5490 5489 5488 5487 5486 5485 5484 5484 5483 5483 5482 5482 5481 5480 5480 5479 5479 5479 5478 5477 5475 5474 5473 5471 5471 5471 5470 5470 5469 5469 5469 5469 5469 5469 5469 5469 5470 5470 5471
5480 5479 5478 5477 5476 5475 5474 5473 5472 5472 5471 5471 5470 5470 5469 5468 5467 5467 5466 5465 5465 5464 5463 5462 5461 5459 5458 5457 5456 5455 5455 5454 5454 5454 5454 5454 5454 5454 5454 5454 5454 5454 5455
5466 5465 5464 5463 5462 5461 5460 5459 5458 5458 5458 5457 5457 5456 5456 5455 5454 5453 5452 5451 5450 5449 5449 5448 5446 5445 5443 5442 5441 5440 5439 5439 5439 5439 5439 5439 5439 5439 5439 5439 5439 5439 5439
5452 5451 5450 5449 5448 5447 5446 5446 5445 5444 5444 5444 5443 5443 5442 5441 5440 5439 5438 5437 5436 5435 5434 5433 5431 5430 5428 5427 5426 5425 5425 5424 5424 5424 5424 5424 5424 5424 5423 5423 5423 5424 5424
5438 5437 5436 5435 5434 5433 5432 5432 5431 5431 5430 5430 5430 5429 5429 5428 5427 5425 5424 5423 5422 5420 5419 5418 5416 5415 5414 5413 5412 5411 5410 5410 5410 5410 5409 5409 5409 5408 5408 5408 5408 5408 5409
5425 5424 5422 5421 5420 5420 5419 5418 5418 5418 5417 5416 5416 5415 5414 5414 5413 5411 5409 5409 5407 5406 5404 5403 5402 5401 5400 5399 5398 5397 5396 5395 5395 5394 5394 5394 5393 5393 5393 5393 5393 5393 5394
5411 5410 5409 5408 5407 5406 5406 5405 5404 5404 5403 5402 5401 5400 5399 5399 5397 5396 5395 5394 5392 5391 5390 5389 5388 5386 5385 5384 5383 5383 5382 5381 5380 5379 5379 5378 5378 5378 5378 5378 5378 5379 5380
5397 5396 5395 5394 5394 5393 5392 5391 5391 5390 5389 5388 5386 5385 5384 5384 5383 5381 5380 5379 5378 5376 5375 5374 5373 5373 5372 5370 5369 5369 5368 5367 5366 5365 5365 5364 5364 5364 5364 5364 5364 5365 5365
5384 5383 5382 5381 5381 5380 5379 5378 5377 5376 5376 5374 5372 5371 5370 5368 5367 5366 5365 5364 5363 5362 5361 5361 5360 5359 5358 5357 5356 5355 5354 5353 5352 5351 5351 5350 5350 5350 5350 5350 5350 5351 5351
5370 5370 5369 5368 5367 5367 5366 5364 5363 5362 5361 5360 5359 5357 5355 5354 5352 5352 5350 5350 5349 5349 5348 5347 5346 5345 5345 5344 5343 5342 5341 5340 5339 5338 5337 5337 5337 5336 5336 5337 5337 5337 5337
5358 5357 5356 5355 5355 5353 5352 5351 5350 5348 5347 5346 5344 5343 5341 5339 5338 5337 5336 5335 5335 5334 5333 5333 5332 5331 5331 5330 5330 5329 5328 5327 5326 5325 5324 5324 5324 5323 5323 5323 5324 5324 5324
5346 5345 5344 5343 5342 5341 5339 5338 5336 5335 5333 5332 5330 5329 5328 5326 5325 5324 5322 5321 5321 5320 5319 5319 5319 5318 5318 5317 5316 5315 5314 5314 5313 5313 5312 5312 5312 5311 5311 5311 5311 5311 5311
5334 5333 5332 5331 5329 5328 5326 5325 5323 5322 5320 5318 5317 5315 5314 5313 5311 5310 5309 5308 5307 5307 5306 5306 5305 5305 5305 5304 5303 5303 5302 5301 5301 5301 5300 5300 5300 5299 5299 5299 5299 5299 5299
5321 5320 5319 5318 5316 5315 5313 5312 5310 5308 5307 5305 5304 5303 5301 5300 5298 5297 5296 5295 5294 5294 5293 5293 5293 5293 5292 5292 5291 5291 5290 5290 5290 5289 5289 5289 5288 5288 5287 5287 5287 5288 5288
5310 5308 5307 5306 5304 5303 5301 5300 5298 5297 5295 5293 5292 5290 5289 5287 5286 5285 5284 5283 5282 5282 5282 5281 5281 5281 5281 5280 5279 5279 5278 5278 5278 5277 5277 5277 5277 5277 5276 5276 5277 5277 5277
5298 5297 5296 5294 5293 5292 5290 5289 5287 5285 5283 5282 5280 5278 5277 5276 5274 5273 5272 5272 5271 5271 5270 5270 5270 5270 5270 5269 5269 5268 5267 5267 5266 5266 5266 5265 5265 5265 5265 5266 5266 5266 5266
5288 5287 5285 5284 5283 5281 5280 5278 5276 5274 5272 5271 5269 5267 5266 5264 5263 5262 5262 5261 5260 5260 5260 5260 5260 5260 5259 5259 5258 5257 5257 5256 5255 5255 5255 5255 5255 5255 5255 5255 5255 5255 5255